Regional Weather Roundup
Issued by NWS

Home | Current Version | Previous Version | Graphics & Text | Print | Product List | Glossary On
Versions: 1 2 3 4 5 6 7 8 9 10 11 12 13 14 15 16 17 18 19 20 21 22 23 24 25 26 27 28 29 30 31 32 33 34 35 36 37 38 39 40 41 42 43 44 45 46 47 48 49 50
000
ASUS43 KTOP 220859
RWRKS

WEATHER ROUNDUP FOR KANSAS
NATIONAL WEATHER SERVICE GOODLAND KS
300 AM CST SAT NOV 22 2014

NOTE:  "FAIR" INDICATES FEW OR NO CLOUDS BELOW 12,000 FEET WITH NO
SIGNIFICANT WEATHER AND/OR OBSTRUCTIONS TO VISIBILITY.

KSZ001>006-013>018-027>032-041>047-221000-
NORTHWEST KANSAS

CITY           SKY/WX    TMP DP  RH WIND       PRES   REMARKS
GOODLAND       CLEAR     36  20  52 SW10      29.92F WCI  28
HAYS           CLOUDY    34  27  75 S7        29.96F VSB 1/4
HILL CITY      PTCLDY    29  28  96 W5        29.92F FOG
RUSSELL        FOG       34  34 100 S17       29.95F VSB 1/2 WCI  23
$$

KSZ061>065-074>080-084>089-221000-
SOUTHWEST KANSAS

CITY           SKY/WX    TMP DP  RH WIND       PRES   REMARKS
DODGE CITY     PTCLDY    36  34  92 S12       29.98R FOG     WCI  28
ELKHART          N/A    N/A N/A N/A MISG        N/A
GARDEN CITY    MOCLDY    32  31  96 SW8       29.95F
GREAT BEND     CLOUDY    37  34  87 S12       29.99F VSB 1/2 WCI  30
LIBERAL        PTCLDY    34  28  80 SW6       29.99S
$$

KSZ066>073-081>083-090>101-221000-
SOUTHEAST KANSAS

CITY           SKY/WX    TMP DP  RH WIND       PRES   REMARKS
CHANUTE        CLOUDY    53  53 100 S13G21    30.05S FOG
COFFEYVILLE    CLOUDY    55  54  96 S13       30.07S FOG
HUTCHINSON     CLOUDY    41  39  93 S9        30.01F FOG
MEDICINE LODGE   N/A     40  40 100 S5        30.01F
NEWTON         CLOUDY    43  37  81 S7        30.03F
PARSONS        CLOUDY    55  55 100 S12G18    30.07S FOG
WICHITA INTL   CLOUDY    44  44 100 CALM      30.03F FOG
WICHITA JABRA  CLOUDY    43  42  97 W5        30.03S
WICHITA MCCONL CLOUDY    43  43 100 W3        30.03S FOG
WINFIELD       FOG       46  46 100 SE3       30.04F VSB 1/2
$$

KSZ007>012-019>026-033>040-048>060-102>105-221000-
NORTHEAST KANSAS

CITY           SKY/WX    TMP DP  RH WIND       PRES   REMARKS
CONCORDIA      FOG       39  39 100 SW10      29.96F VSB 1   WCI  32
EMPORIA        FOG       47  47 100 SW3       30.02S VSB 1/4
LAWRENCE       CLOUDY    51  50  96 S8        30.01F FOG
MANHATTAN      CLOUDY    43  42  97 SW8       30.01R FOG
OLATHE IND     CLOUDY    50  50 100 S12       30.02F FOG
OLATHE EXE     CLOUDY    50  50 100 S15       30.01F FOG
SALINA         CLOUDY    42  40  92 S10       30.00F FOG
TOPEKA BILLARD CLOUDY    42  41  96 CALM      30.02S FOG
TOPEKA FORBES  CLOUDY    48  46  93 SW7       30.01S FOG
$$


USA.gov is the U.S. government's official web portal to all federal, state and local government web resources and services.